Flag for Switzerland Weather past 2 weeks in Altdorf, Uri, Switzerland

Now
62 °F

Mild.


Feels Like: 62 °F
Forecast: 33 / 60 °F
Wind: 1 mph from South

Location: Altdorf

Current Time: Aug 20, 2014 at 7:13:15 PM

Latest Report: Aug 20, 2014 at 6:00 PM


Visibility: N/A

Pressure: 29.97 "Hg

Humidity: 80%

Dew point: 56 °F

Location of AltdorfLocation

Historic Weather in Altdorf — Graph

°F

Altdorf temperature yesterday

Maximum temperature yesterday: 68 °F (at 3:00 PM)
Minimum temperature yesterday: 58 °F (at 2:00 AM)
Average temperature yesterday: 63 °F

Past Weeks' High & Low Weather Summary

 TemperatureHumidityPressure
High86 °F (Aug 10, 3:00 PM)96% (Aug 8, 7:00 AM)30.22 "Hg (Aug 8, 7:00 AM)
Low46 °F (Aug 17, 6:00 AM)36% (Aug 10, 3:00 PM)29.64 "Hg (Aug 13, 10:00 AM)
Average63 °F77%29.97 "Hg
* Reported Aug 5 5:00 PM — Aug 20 5:00 PM, Altdorf, Weather by CustomWeather, © 2014

Note: Actual official high and low records may vary slightly from our data, if they occured in-between our weather recording intervals... More about our weather records

Advertising

Altdorf weather history for previous 24 hours

 ConditionsComfort  
Time TempWeatherWind HumidityBarometerVisibility
5:00 PM
Aug 20
63 °FOvercast.1 mph67%29.97 "Hg11 mi
4:00 PM63 °FMild.1 mph71%29.97 "HgN/A
3:00 PM63 °FMild.1 mph72%29.98 "HgN/A
2:00 PM62 °FOvercast.No wind74%30.00 "Hg11 mi
1:00 PM61 °FCool.1 mph71%30.00 "HgN/A
12:00 PM61 °FCool.1 mph72%30.01 "HgN/A
11:00 AM60 °FOvercast.2 mph75%30.01 "Hg10 mi
10:00 AM59 °FCool.3 mph80%30.01 "HgN/A
9:00 AM60 °FCool.3 mph76%30.01 "HgN/A
8:00 AM59 °FOvercast.2 mph79%30.00 "Hg10 mi
7:00 AM60 °FCool.1 mph72%30.00 "HgN/A
6:00 AM60 °FCool.1 mph76%30.01 "HgN/A
5:00 AM60 °FOvercast.1 mph80%30.01 "Hg9 mi
4:00 AM60 °FCool.1 mph77%30.00 "HgN/A
3:00 AM60 °FCool.1 mph72%29.99 "HgN/A
2:00 AM62 °FOvercast.3 mph68%29.99 "Hg9 mi
1:00 AM63 °FMild.5 mph66%29.99 "HgN/A
12:00 AM63 °FMild.2 mph66%29.99 "HgN/A
11:00 PM
Aug 19
63 °FOvercast.8 mph66%29.98 "Hg9 mi
10:00 PM64 °FMild.8 mph65%29.96 "HgN/A
9:00 PM64 °FMild.7 mph64%29.94 "HgN/A
8:00 PM65 °FOvercast.10 mph66%29.93 "Hg6 mi
7:00 PM65 °FMild.7 mph69%29.90 "HgN/A
Weather by CustomWeather, © 2014

See weather overviewHow to use our weather pages